DLH6KK EHAM-EDDM

Flight info

Callsign DLH6KK
Flight time N/A
Altitude 35000
Route EDUPO Z739 MISGO DCT DOJOH DCT DODEN/N0449F330 DCT TABUM DCT BOMBI T104 HAREM/N0431F270 T104 ROKIL ROKIL1B
Aircraft A320/M-SDE3FGHIRWY/LB1

Departure

Time 2026-05-05 18:10
Airport Amsterdam Airport Schiphol (EHAM)

Arrival

Time N/A
Airport Munich Airport (EDDM)
Time Latitude Longitude Altitude Speed Heading
2026-05-05 17:38 52.30476 4.76288 -1 ft 0 kts 238°
2026-05-05 17:58 52.30476 4.76289 -1 ft 2 kts 238°
2026-05-05 17:58 52.30485 4.76311 -1 ft 2 kts 238°
2026-05-05 17:58 52.30494 4.76333 -1 ft 2 kts 229°
2026-05-05 17:58 52.30506 4.76352 -1 ft 2 kts 184°
2026-05-05 17:59 52.30518 4.76350 -1 ft 1 kts 162°
2026-05-05 17:59 52.30518 4.76349 -1 ft 0 kts 162°
2026-05-05 18:03 52.30518 4.76350 -1 ft 1 kts 161°
2026-05-05 18:03 52.30486 4.76382 -1 ft 5 kts 146°
2026-05-05 18:03 52.30464 4.76406 -1 ft 3 kts 146°
2026-05-05 18:03 52.30437 4.76435 -1 ft 8 kts 147°
2026-05-05 18:04 52.30386 4.76489 -1 ft 7 kts 147°
2026-05-05 18:04 52.30344 4.76530 -1 ft 7 kts 153°
2026-05-05 18:04 52.30277 4.76478 -1 ft 18 kts 240°
2026-05-05 18:04 52.30213 4.76309 -1 ft 17 kts 237°
2026-05-05 18:05 52.30151 4.76147 -1 ft 18 kts 239°
2026-05-05 18:05 52.30063 4.75908 -1 ft 31 kts 239°
2026-05-05 18:05 52.29945 4.75611 -1 ft 28 kts 233°
2026-05-05 18:05 52.29850 4.75370 -1 ft 23 kts 239°
2026-05-05 18:06 52.29870 4.75144 -1 ft 21 kts 308°
2026-05-05 18:06 52.29937 4.75018 -1 ft 22 kts 311°
2026-05-05 18:06 52.30079 4.74763 1 ft 23 kts 312°
2026-05-05 18:06 52.30170 4.74593 10 ft 19 kts 310°
2026-05-05 18:07 52.30261 4.74422 10 ft 21 kts 311°
2026-05-05 18:07 52.30354 4.74246 -1 ft 18 kts 309°
2026-05-05 18:07 52.30339 4.74060 -1 ft 17 kts 221°
2026-05-05 18:07 52.30250 4.73952 -1 ft 6 kts 215°
2026-05-05 18:08 52.30216 4.73914 -1 ft 6 kts 216°
2026-05-05 18:08 52.30206 4.73900 -1 ft 0 kts 219°
2026-05-05 18:08 52.30200 4.73891 -1 ft 5 kts 228°
2026-05-05 18:09 52.30189 4.73800 -2 ft 9 kts 282°
2026-05-05 18:09 52.30233 4.73741 -3 ft 10 kts 354°
2026-05-05 18:09 52.30248 4.73742 -3 ft 2 kts
2026-05-05 18:09 52.30270 4.73743 -4 ft 22 kts
2026-05-05 18:10 52.30686 4.73782 -2 ft 93 kts
2026-05-05 18:10 52.31516 4.73860 -1 ft 147 kts
2026-05-05 18:10 52.32604 4.73948 464 ft 159 kts
2026-05-05 18:10 52.33664 4.74387 1297 ft 158 kts 22°
2026-05-05 18:11 52.34742 4.75053 1810 ft 175 kts 21°
2026-05-05 18:11 52.35948 4.75782 2197 ft 194 kts 21°
2026-05-05 18:11 52.37286 4.76602 2699 ft 214 kts 25°
2026-05-05 18:11 52.38548 4.78088 3290 ft 234 kts 45°
2026-05-05 18:12 52.39694 4.80044 4189 ft 241 kts 45°
2026-05-05 18:12 52.40860 4.82019 5102 ft 248 kts 45°
2026-05-05 18:12 52.41968 4.84246 5935 ft 260 kts 61°
2026-05-05 18:12 52.42404 4.87172 6724 ft 272 kts 85°
2026-05-05 18:13 52.42415 4.90306 7609 ft 278 kts 88°
2026-05-05 18:13 52.42412 4.93496 8500 ft 283 kts 91°
2026-05-05 18:13 52.42072 4.96691 9370 ft 290 kts 109°
2026-05-05 18:13 52.41152 4.99645 10174 ft 297 kts 126°
2026-05-05 18:14 52.39660 5.02158 10492 ft 320 kts 144°
2026-05-05 18:14 52.37770 5.04333 10810 ft 343 kts 146°
2026-05-05 18:14 52.35779 5.06590 11428 ft 352 kts 146°
2026-05-05 18:14 52.33780 5.08952 12171 ft 357 kts 140°
2026-05-05 18:15 52.32034 5.11787 12940 ft 361 kts 132°
2026-05-05 18:15 52.30347 5.14861 13692 ft 365 kts 131°
2026-05-05 18:15 52.28648 5.17964 14400 ft 369 kts 132°
2026-05-05 18:15 52.26931 5.21095 15121 ft 371 kts 132°
2026-05-05 18:16 52.25196 5.24249 15827 ft 374 kts 132°
2026-05-05 18:16 52.23576 5.27583 16514 ft 377 kts 125°
2026-05-05 18:16 52.22064 5.31096 17203 ft 380 kts 126°
2026-05-05 18:16 52.20539 5.34633 17896 ft 383 kts 126°
2026-05-05 18:17 52.18995 5.38194 18510 ft 386 kts 126°
2026-05-05 18:17 52.17438 5.41770 19068 ft 389 kts 126°
2026-05-05 18:17 52.15866 5.45366 19635 ft 391 kts 128°
2026-05-05 18:17 52.14307 5.48929 20241 ft 392 kts 127°
2026-05-05 18:18 52.12720 5.52561 20810 ft 395 kts 127°
2026-05-05 18:18 52.11122 5.56220 21346 ft 398 kts 127°
2026-05-05 18:18 52.09507 5.59898 21887 ft 401 kts 127°
2026-05-05 18:18 52.07820 5.63514 22394 ft 402 kts 134°